Syracuse, NY
on Friday, December 8, 2017

Friday
       
Previous Day Next Day
Daily Summary
 ActualAverageRecord
Temperature
Mean Temperature °F °C 32°F 0°C  
Max Temperature 34°F 1°C 39°F 4°C 69°F 20°C (1966)
Min Temperature 26°F -3°C 25°F -4°C -7°F -21°C (1906)
Degree Days
Heating Degree Days 35 33  
Month to date heating degree days 227 253  
Since 1 July heating degree days 1424 1602  
Cooling Degree Days 0 0  
Month to date cooling degree days 0 0  
Year to date cooling degree days 562 569  
Moisture
Dew Point 18°F -8°C   
Average Humidity 69    
Maximum Humidity 85    
Minimum Humidity 53    
Precipitation
Precipitation T in / T cm 0.11 in / 2.79 cm 1.07 in / 2.72 cm (1944)
Month to date precipitation 0.24 0.91  
Year to date precipitation 43.88 36.16  
Snow
Snow T in / T cm 1.00 in / 2.54 cm 14.90 in / 37.85 cm (2010)
Month to date snowfall T 7.5  
Since 1 July snowfall 5.2 17.4  
Snow Depth 0.00 in / 0.00 cm   
Wind
Wind Speed 9 mph / 15 km/h   
Max Wind Speed 20 mph / 32 km/h   
Max Gust Speed 23 mph / 37 km/h   
Visibility 10 miles / 16 kilometers   
Events Snow   

Key: T is trace of precipitation, MM is missing value
Source: NWS Daily Summary
Time(EST)TemperatureDew PointHumidity Pressure Visibility Wind DirectionWind SpeedGust SpeedPrecipitationEvents Conditions
12:54 AM 28.0°F -2.2°C 18.0°F -7.8°C 66% 29.96 in / 1014.6 hPa 10.0 miles / 16.1 kilometers WSW 15.0 mph / 24.1 km/h - N/A   Mostly Cloudy
1:54 AM 27.0°F -2.8°C 17.1°F -8.3°C 66% 29.98 in / 1015.1 hPa 10.0 miles / 16.1 kilometers SW 12.7 mph / 20.4 km/h - N/A   Scattered Clouds
2:54 AM 27.0°F -2.8°C 16.0°F -8.9°C 63% 29.98 in / 1015.1 hPa 10.0 miles / 16.1 kilometers WSW 12.7 mph / 20.4 km/h - N/A   Scattered Clouds
3:54 AM 28.0°F -2.2°C 19.0°F -7.2°C 69% 29.98 in / 1015.2 hPa 10.0 miles / 16.1 kilometers SW 8.1 mph / 13.0 km/h - N/A   Overcast
4:54 AM 28.9°F -1.7°C 21.0°F -6.1°C 72% 29.99 in / 1015.3 hPa 10.0 miles / 16.1 kilometers SW 6.9 mph / 11.1 km/h - N/A   Overcast
5:54 AM 28.9°F -1.7°C 23.0°F -5.0°C 78% 29.99 in / 1015.6 hPa 9.0 miles / 14.5 kilometers SW 6.9 mph / 11.1 km/h - 0.00 in / 0.0 cm Snow Light Snow
6:37 AM 28.9°F -1.7°C 24.1°F -4.4°C 82% 29.98 in / 1015.1 hPa 9.0 miles / 14.5 kilometers SW 5.8 mph / 9.3 km/h - 0.00 in / 0.0 cm Snow Light Snow
6:54 AM 28.9°F -1.7°C 24.1°F -4.4°C 82% 29.99 in / 1015.4 hPa 9.0 miles / 14.5 kilometers SSW 6.9 mph / 11.1 km/h - 0.00 in / 0.0 cm Snow Light Snow
7:02 AM 28.9°F -1.7°C 24.1°F -4.4°C 82% 29.98 in / 1015.1 hPa 9.0 miles / 14.5 kilometers SW 6.9 mph / 11.1 km/h - 0.00 in / 0.0 cm Snow Light Snow
7:54 AM 30.0°F -1.1°C 19.9°F -6.7°C 66% 29.99 in / 1015.5 hPa 9.0 miles / 14.5 kilometers SW 11.5 mph / 18.5 km/h - 0.00 in / 0.0 cm Snow Light Snow
8:54 AM 28.9°F -1.7°C 23.0°F -5.0°C 78% 30.00 in / 1015.8 hPa 8.0 miles / 12.9 kilometers West 6.9 mph / 11.1 km/h - 0.00 in / 0.0 cm Snow Light Snow
9:54 AM 30.9°F -0.6°C 21.0°F -6.1°C 67% 30.02 in / 1016.5 hPa 9.0 miles / 14.5 kilometers SSW 10.4 mph / 16.7 km/h - 0.00 in / 0.0 cm   Overcast
10:54 AM 30.0°F -1.1°C 18.0°F -7.8°C 61% 30.00 in / 1015.8 hPa 10.0 miles / 16.1 kilometers SW 11.5 mph / 18.5 km/h - N/A   Overcast
11:54 AM 30.9°F -0.6°C 18.0°F -7.8°C 59% 30.00 in / 1015.7 hPa 10.0 miles / 16.1 kilometers SSW 12.7 mph / 20.4 km/h - N/A   Overcast
12:54 PM 30.9°F -0.6°C 18.0°F -7.8°C 59% 29.97 in / 1014.8 hPa 10.0 miles / 16.1 kilometers SSW 11.5 mph / 18.5 km/h - N/A   Overcast
1:54 PM 32.0°F 0.0°C 18.0°F -7.8°C 56% 29.94 in / 1013.7 hPa 10.0 miles / 16.1 kilometers South 11.5 mph / 18.5 km/h - N/A   Mostly Cloudy
2:54 PM 32.0°F 0.0°C 17.1°F -8.3°C 54% 29.94 in / 1013.9 hPa 10.0 miles / 16.1 kilometers South 11.5 mph / 18.5 km/h - N/A   Mostly Cloudy
3:54 PM 30.9°F -0.6°C 17.1°F -8.3°C 57% 29.93 in / 1013.4 hPa 10.0 miles / 16.1 kilometers South 10.4 mph / 16.7 km/h - N/A   Mostly Cloudy
4:54 PM 30.0°F -1.1°C 16.0°F -8.9°C 56% 29.94 in / 1013.6 hPa 10.0 miles / 16.1 kilometers South 9.2 mph / 14.8 km/h - N/A   Scattered Clouds
5:54 PM 28.0°F -2.2°C 16.0°F -8.9°C 61% 29.92 in / 1013.2 hPa 10.0 miles / 16.1 kilometers South 4.6 mph / 7.4 km/h - N/A   Scattered Clouds
6:54 PM 28.0°F -2.2°C 16.0°F -8.9°C 61% 29.95 in / 1014.0 hPa 10.0 miles / 16.1 kilometers South 6.9 mph / 11.1 km/h - N/A   Partly Cloudy
7:54 PM 27.0°F -2.8°C 14.0°F -10.0°C 58% 29.94 in / 1013.9 hPa 10.0 miles / 16.1 kilometers SSW 9.2 mph / 14.8 km/h - N/A   Scattered Clouds
8:54 PM 27.0°F -2.8°C 12.9°F -10.6°C 56% 29.94 in / 1013.6 hPa 10.0 miles / 16.1 kilometers West 5.8 mph / 9.3 km/h - N/A   Partly Cloudy
9:54 PM 28.0°F -2.2°C 14.0°F -10.0°C 56% 29.94 in / 1013.9 hPa 10.0 miles / 16.1 kilometers SSW 8.1 mph / 13.0 km/h - N/A   Scattered Clouds
10:54 PM 27.0°F -2.8°C 12.9°F -10.6°C 56% 29.92 in / 1013.2 hPa 10.0 miles / 16.1 kilometers SW 6.9 mph / 11.1 km/h - N/A   Partly Cloudy
11:54 PM 27.0°F -2.8°C 14.0°F -10.0°C 58% 29.94 in / 1013.7 hPa 10.0 miles / 16.1 kilometers SW 9.2 mph / 14.8 km/h - N/A   Scattered Clouds